Ringgold, VA

11:56 AM EDT on September 26, 2016 (GMT -0400)
Danville Regional

Weather History for KDAN - January, 2013

Change the Weather History Date:

Friday, January 25, 2013

  Actual Average Record
Temperature  
Mean Temperature 22 °F 38 °F  
Max Temperature 27 °F 47 °F 79 °F (1967)
Min Temperature 16 °F 30 °F 10 °F (1963)
Degree Days  
Heating Degree Days 43 27  
Month to date heating degree days 585 686  
Since 1 July heating degree days 1986 2168  
Cooling Degree Days 0 0  
Month to date cooling degree days 0 0  
Year to date cooling degree days 0 0  
Moisture  
Dew Point 15 °F    
Average Humidity 67    
Maximum Humidity 88    
Minimum Humidity 46    
Precipitation  
Precipitation 0.13 in 0.11 in 1.58 in (1958)
Month to date precipitation 6.13 2.71  
Year to date precipitation 6.13 2.71  
Snow  
Snow 0.10 in - - ()
Month to date snowfall 1.1  
Since 1 July snowfall 1.1  
Snow Depth T in    
Sea Level Pressure  
Sea Level Pressure 30.28 in    
Wind  
Wind Speed 5 mph (SSW)    
Max Wind Speed 13 mph    
Max Gust Speed 16 mph    
Visibility 9 miles    
Events Rain , Snow    
T = Trace of Precipitation, MM = Missing Value Source: NWS Daily Summary

Daily Weather History Graph

Daily Weather History Graph

Search for Another Location

Airport or City:

Trip Planner

Search our weather history database for the weather conditions in past years. The results will help you decide how hot, cold, wet, or windy it might be!

Date:

Astronomy

Jan. 25, 2013 Rise Set
Actual Time 7:23 AM EST 5:36 PM EST
Civil Twilight 6:56 AM EST 6:03 PM EST
Nautical Twilight 6:25 AM EST 6:34 PM EST
Astronomical Twilight 5:54 AM EST 7:05 PM EST
Moon 4:31 PM EST (1/25) 6:02 AM EST (1/25)
Length of Visible Light 11h 07m
Length of Day
10h 12m
Waxing Gibbous, 98% of the Moon is Illuminated
Jan 25
Waxing Gibbous
Jan 26
Full
Feb 3
Last Quarter
Feb 10
New
Feb 17
First Quarter

Hourly Weather History & Observations

Time (EST) Temp. Windchill Dew Point Humidity Pressure Visibility Wind Dir Wind Speed Gust Speed Precip Events Conditions
12:53 AM 19.9 °F - 3.9 °F 50% 30.51 in 10.0 mi Calm Calm - N/A   Clear
1:53 AM 18.0 °F - 5.0 °F 57% 30.52 in 10.0 mi Calm Calm - N/A   Clear
2:53 AM 17.1 °F - 8.1 °F 68% 30.51 in 10.0 mi Calm Calm - N/A   Clear
3:53 AM 17.1 °F - 7.0 °F 65% 30.51 in 10.0 mi Calm Calm - N/A   Clear
4:53 AM 18.0 °F - 9.0 °F 68% 30.51 in 10.0 mi Calm Calm - N/A   Clear
5:53 AM 18.0 °F - 10.9 °F 74% 30.49 in 10.0 mi Calm Calm - N/A   Clear
6:53 AM 19.0 °F - 10.9 °F 71% 30.49 in 10.0 mi Calm Calm - N/A   Clear
7:53 AM 21.0 °F 16.2 °F 6.1 °F 53% 30.45 in 10.0 mi South 3.5 mph - N/A   Partly Cloudy
8:53 AM 21.9 °F 17.2 °F 9.0 °F 58% 30.46 in 10.0 mi Variable 3.5 mph - N/A   Overcast
9:53 AM 24.1 °F 18.2 °F 6.1 °F 46% 30.44 in 10.0 mi South 4.6 mph - N/A   Overcast
10:53 AM 24.1 °F 15.2 °F 8.1 °F 51% 30.42 in 9.0 mi SSW 8.1 mph - 0.00 in   Overcast
11:53 AM 24.1 °F 14.4 °F 10.9 °F 57% 30.35 in 4.0 mi SSW 9.2 mph 16.1 mph 0.00 in Snow Light Snow
12:53 PM 24.1 °F 15.2 °F 10.0 °F 55% 30.29 in 10.0 mi SSW 8.1 mph - 0.00 in   Overcast
1:32 PM 24.8 °F 16.9 °F 14.0 °F 64% 30.25 in 3.0 mi SSW 6.9 mph - 0.03 in Rain Light Freezing Rain
1:41 PM 23.0 °F 14.7 °F 15.8 °F 74% 30.25 in 4.0 mi SSW 6.9 mph - 0.05 in Rain Light Freezing Rain
1:53 PM 23.0 °F 14.7 °F 16.0 °F 74% 30.25 in 6.0 mi SSW 6.9 mph - 0.06 in Rain Light Freezing Rain
2:13 PM 23.0 °F 17.0 °F 15.8 °F 74% 30.23 in 5.0 mi SSW 4.6 mph - 0.02 in   Overcast
2:27 PM 23.0 °F 17.0 °F 17.6 °F 80% 30.21 in 7.0 mi Variable 4.6 mph - 0.03 in Rain Light Freezing Rain
2:53 PM 24.1 °F 17.0 °F 17.1 °F 75% 30.22 in 7.0 mi SSW 5.8 mph - 0.06 in Rain Light Freezing Rain
3:18 PM 23.0 °F 17.0 °F 17.6 °F 80% 30.20 in 10.0 mi SW 4.6 mph - 0.00 in   Overcast
3:42 PM 24.8 °F 19.1 °F 17.6 °F 74% 30.19 in 6.0 mi SSW 4.6 mph - 0.01 in Rain Light Freezing Rain
3:53 PM 23.0 °F 17.0 °F 18.0 °F 81% 30.19 in 7.0 mi SSW 4.6 mph - 0.01 in Rain Light Freezing Rain
4:13 PM 23.0 °F 17.0 °F 19.4 °F 86% 30.17 in 10.0 mi SW 4.6 mph - 0.00 in   Overcast
4:53 PM 23.0 °F 17.0 °F 19.0 °F 85% 30.15 in 10.0 mi Variable 4.6 mph - 0.00 in   Overcast
5:13 PM 24.8 °F 16.9 °F 19.4 °F 80% 30.14 in 10.0 mi SSW 6.9 mph - N/A   Overcast
5:53 PM 24.1 °F 18.2 °F 19.9 °F 84% 30.15 in 10.0 mi Variable 4.6 mph - N/A   Overcast
6:48 PM 24.8 °F 19.1 °F 21.2 °F 86% 30.13 in 10.0 mi SSW 4.6 mph - N/A   Overcast
6:53 PM 24.1 °F 17.0 °F 21.0 °F 88% 30.14 in 10.0 mi SSW 5.8 mph - N/A   Overcast
7:28 PM 24.8 °F 17.9 °F 21.2 °F 86% 30.12 in 10.0 mi SW 5.8 mph - N/A   Overcast
7:53 PM 25.0 °F 17.1 °F 21.0 °F 85% 30.13 in 10.0 mi SW 6.9 mph - N/A   Overcast
8:53 PM 26.1 °F 16.8 °F 21.0 °F 81% 30.12 in 10.0 mi SW 9.2 mph - N/A   Overcast
9:53 PM 26.1 °F 16.2 °F 21.0 °F 81% 30.11 in 10.0 mi WSW 10.4 mph - N/A   Overcast
10:53 PM 26.1 °F 16.8 °F 21.0 °F 81% 30.10 in 10.0 mi SW 9.2 mph - N/A   Overcast
11:53 PM 27.0 °F 21.6 °F 23.0 °F 85% 30.09 in 9.0 mi SW 4.6 mph - N/A   Overcast